TimeEDT,TemperatureF,Dew PointF,Humidity,Sea Level PressureIn,VisibilityMPH,Wind Direction,Wind SpeedMPH,Gust SpeedMPH,PrecipitationIn,Events,Conditions,WindDirDegrees,DateUTC
12:53 AM,75.0,72.0,90,30.13,10.0,ESE,5.8,-,N/A,,Scattered Clouds,120,2013-07-04 04:53:00
1:53 AM,73.9,72.0,93,30.12,10.0,SE,6.9,-,N/A,,Scattered Clouds,130,2013-07-04 05:53:00
2:53 AM,73.9,71.1,91,30.11,10.0,ESE,6.9,-,N/A,,Partly Cloudy,120,2013-07-04 06:53:00
3:07 AM,73.4,71.6,94,30.11,10.0,ESE,6.9,-,N/A,,Partly Cloudy,110,2013-07-04 07:07:00
3:53 AM,73.0,71.1,93,30.10,10.0,SE,3.5,-,N/A,,Clear,140,2013-07-04 07:53:00
4:53 AM,73.0,71.1,93,30.10,10.0,ESE,4.6,-,N/A,,Scattered Clouds,110,2013-07-04 08:53:00
5:53 AM,73.0,71.1,93,30.11,10.0,East,5.8,-,N/A,,Scattered Clouds,100,2013-07-04 09:53:00
6:40 AM,73.4,71.6,94,30.11,7.0,East,5.8,-,N/A,,Mostly Cloudy,100,2013-07-04 10:40:00
6:53 AM,73.0,71.1,93,30.11,7.0,ESE,6.9,-,N/A,,Overcast,110,2013-07-04 10:53:00
7:53 AM,75.9,73.0,91,30.12,9.0,ESE,6.9,-,N/A,,Scattered Clouds,110,2013-07-04 11:53:00
8:23 AM,75.2,73.4,94,30.13,10.0,ESE,8.1,-,N/A,,Mostly Cloudy,120,2013-07-04 12:23:00
8:53 AM,79.0,73.9,84,30.13,10.0,SE,9.2,-,N/A,,Mostly Cloudy,130,2013-07-04 12:53:00
9:16 AM,78.8,73.4,83,30.14,10.0,ESE,12.7,-,N/A,,Mostly Cloudy,120,2013-07-04 13:16:00
9:30 AM,80.6,73.4,79,30.14,10.0,SE,11.5,-,N/A,,Mostly Cloudy,130,2013-07-04 13:30:00
9:39 AM,80.6,73.4,79,30.14,10.0,SE,10.4,-,N/A,,Mostly Cloudy,130,2013-07-04 13:39:00
9:53 AM,81.0,75.0,82,30.13,10.0,SE,9.2,-,N/A,,Mostly Cloudy,140,2013-07-04 13:53:00
10:11 AM,82.4,75.2,79,30.15,10.0,SE,10.4,-,N/A,,Overcast,140,2013-07-04 14:11:00
10:53 AM,84.0,73.9,72,30.14,10.0,SSE,13.8,-,N/A,,Overcast,150,2013-07-04 14:53:00
11:21 AM,84.2,73.4,70,30.15,10.0,SE,16.1,25.3,N/A,,Mostly Cloudy,140,2013-07-04 15:21:00
11:53 AM,86.0,73.9,67,30.14,10.0,SSE,12.7,23.0,0.00,Rain,Light Rain,160,2013-07-04 15:53:00
12:53 PM,86.0,73.0,65,30.12,10.0,SSE,10.4,-,0.00,,Mostly Cloudy,150,2013-07-04 16:53:00
1:53 PM,89.1,73.0,59,30.11,10.0,SSE,12.7,20.7,0.00,,Partly Cloudy,150,2013-07-04 17:53:00
2:53 PM,90.0,73.0,57,30.09,10.0,SE,12.7,21.9,N/A,,Partly Cloudy,140,2013-07-04 18:53:00
3:53 PM,86.0,72.0,63,30.09,10.0,North,-9999.0,-,N/A,,Scattered Clouds,0,2013-07-04 19:53:00
4:53 PM,82.9,73.0,72,30.11,10.0,North,-9999.0,-,N/A,,Partly Cloudy,0,2013-07-04 20:53:00
5:03 PM,78.8,71.6,78,30.13,1.8,North,-9999.0,-,0.02,Rain,Heavy Rain,0,2013-07-04 21:03:00
5:12 PM,78.8,69.8,74,30.11,3.0,North,-9999.0,-,0.10,Rain,Light Rain,0,2013-07-04 21:12:00
5:53 PM,77.0,72.0,84,30.11,10.0,SW,4.6,-,0.10,,Clear,220,2013-07-04 21:53:00
6:53 PM,78.1,71.1,79,30.12,10.0,West,5.8,-,N/A,,Mostly Cloudy,260,2013-07-04 22:53:00
7:53 PM,78.1,70.0,76,30.15,10.0,Calm,Calm,-,N/A,,Mostly Cloudy,0,2013-07-04 23:53:00
8:02 PM,75.2,69.8,83,30.17,1.5,North,-9999.0,-,0.00,Rain,Heavy Rain,0,2013-07-05 00:02:00
8:06 PM,73.4,69.8,88,30.18,4.0,WSW,10.4,24.2,0.11,Rain,Heavy Rain,240,2013-07-05 00:06:00
8:53 PM,72.0,69.1,91,30.17,10.0,Calm,Calm,-,0.13,,Scattered Clouds,0,2013-07-05 00:53:00
9:53 PM,73.0,70.0,90,30.17,9.0,Calm,Calm,-,0.00,,Mostly Cloudy,0,2013-07-05 01:53:00
10:53 PM,73.0,70.0,90,30.17,10.0,Calm,Calm,-,0.00,,Mostly Cloudy,0,2013-07-05 02:53:00
11:53 PM,73.0,70.0,90,30.16,9.0,Calm,Calm,-,N/A,,Clear,0,2013-07-05 03:53:00